Total_Precipitation_Accumulation
2.16 2.26 2.72 2.46 2.31 2.47 2.66 2.62 2.83 3.06 2.90 2.76 2.74 2.71 2.81 3.16 3.27 3.19 3.16 3.29 3.71 4.24 4.66 4.82 4.82 4.68 4.63 4.48 3.81 3.25 2.85 2.79 2.80 2.74 2.62 2.54 2.62 2.86 2.94 3.07 3.07 2.31 2.21
1.88 2.15 2.50 2.38 2.23 2.42 2.59 2.65 2.82 2.96 2.89 2.76 2.72 2.77 2.95 3.25 3.23 3.15 3.11 3.23 3.53 4.04 4.38 4.28 4.18 3.96 3.79 3.61 3.25 2.99 2.93 3.01 3.13 3.13 3.17 2.96 3.05 3.14 3.04 3.09 3.19 2.38 2.36
1.82 1.93 2.06 2.15 1.99 2.13 2.29 2.34 2.49 2.83 3.04 3.00 2.78 2.69 2.91 3.18 3.40 3.52 3.41 3.43 3.69 4.11 4.31 4.16 3.88 3.67 3.47 3.33 3.03 2.91 2.90 3.14 3.43 3.69 3.99 3.03 2.56 3.12 3.08 3.05 2.78 2.29 2.21
1.42 1.50 1.61 1.87 1.87 1.87 2.04 2.19 2.33 2.59 2.87 2.82 2.66 2.54 2.79 3.14 3.44 3.63 3.61 3.52 3.75 4.12 4.46 4.36 4.04 3.76 3.45 3.18 2.97 2.91 2.97 3.26 3.50 3.95 3.73 2.68 2.02 2.47 2.79 2.71 2.41 2.12 1.97
1.30 1.40 1.71 1.80 1.75 1.80 1.96 2.09 2.18 2.35 2.43 2.48 2.54 2.64 2.91 3.29 3.60 3.68 3.59 3.51 3.62 3.91 4.28 4.41 3.94 3.41 3.13 3.00 3.05 3.13 3.23 3.48 3.74 3.60 2.81 2.79 2.68 2.63 2.53 2.43 2.30 2.03 1.86
1.43 1.48 1.66 1.80 1.74 1.89 1.94 1.92 2.06 2.16 2.22 2.43 2.58 2.70 3.03 3.32 3.53 3.56 3.43 3.36 3.51 3.72 3.93 3.99 3.58 3.09 2.96 3.03 3.16 3.26 3.45 3.66 3.57 2.72 2.38 2.46 2.31 2.48 2.48 2.41 2.27 2.04 1.88
1.34 1.54 1.67 1.76 1.65 1.67 1.64 1.70 1.95 2.03 2.16 2.41 2.51 2.68 2.99 3.29 3.44 3.52 3.43 3.51 3.52 3.63 3.80 3.61 3.25 3.03 3.15 3.12 3.13 3.19 3.46 3.61 2.91 2.37 2.47 2.64 2.32 2.32 2.59 2.60 2.36 2.07 1.80
1.17 1.41 1.64 1.68 1.55 1.47 1.50 1.65 1.81 1.96 2.12 2.32 2.40 2.59 2.92 3.27 3.31 3.15 3.21 3.38 3.22 3.32 3.43 3.23 2.98 2.84 3.00 3.07 3.01 3.14 3.31 3.13 2.32 2.06 2.19 2.30 2.03 2.26 2.73 2.72 2.50 2.29 1.97
1.20 1.34 1.50 1.58 1.51 1.47 1.52 1.74 1.88 1.98 2.19 2.35 2.41 2.64 3.04 3.29 3.26 3.08 3.06 3.16 3.17 3.27 3.10 2.93 2.92 2.79 2.81 2.99 3.04 3.21 3.27 3.07 2.35 2.15 1.90 2.02 1.93 2.28 2.79 2.73 2.51 2.42 2.11
1.34 1.43 1.43 1.52 1.42 1.37 1.50 1.88 2.14 2.25 2.51 2.72 2.77 2.98 3.43 3.49 3.39 3.23 3.01 3.12 3.20 3.16 3.07 3.03 3.02 2.93 2.92 3.07 3.29 3.45 3.37 2.88 2.23 2.02 1.96 1.83 2.01 2.48 2.89 2.80 2.68 2.56 2.34
1.54 1.67 1.61 1.66 1.46 1.48 1.53 1.82 2.26 2.43 2.74 3.13 3.37 3.62 3.98 4.04 3.69 3.61 3.23 3.51 3.59 3.47 3.48 3.48 3.48 3.42 3.27 3.27 3.54 3.59 3.24 2.71 2.58 2.19 2.00 1.90 2.29 2.78 3.08 3.18 3.05 2.88 2.67
1.79 1.64 1.69 1.75 1.60 1.69 1.68 2.02 2.70 2.76 3.10 3.46 3.70 3.78 4.08 4.22 4.14 3.60 3.87 4.37 4.50 4.47 4.47 4.47 4.50 4.19 3.57 3.22 3.61 3.91 3.16 2.88 2.76 2.32 2.03 2.16 2.53 2.99 3.24 3.37 3.09 2.97 2.85
1.82 1.64 1.74 1.85 1.97 2.06 2.38 2.22 2.44 2.91 3.46 3.66 3.81 4.05 4.16 3.98 3.87 3.78 4.20 4.81 5.00 4.97 4.88 4.90 4.94 4.40 3.96 3.87 3.97 3.84 3.35 3.17 2.91 2.49 2.58 2.74 2.97 3.46 3.66 3.48 3.22 3.02 2.82
2.27 2.22 2.16 2.34 2.58 2.62 2.46 2.45 2.32 2.52 3.08 3.61 3.90 3.74 3.90 4.30 4.25 3.99 4.11 4.38 4.61 4.76 5.05 4.75 4.67 4.57 4.32 3.96 3.71 3.70 3.45 3.32 3.17 3.10 3.31 3.34 3.35 3.77 4.09 3.82 3.50 3.31 3.11
3.02 3.20 3.12 3.09 3.03 3.10 3.12 2.99 2.55 2.80 2.93 3.09 3.54 3.62 3.65 4.08 4.38 4.35 4.32 4.50 4.11 4.19 4.60 4.67 4.36 4.40 4.43 4.12 3.70 3.54 3.53 3.42 3.45 3.34 3.46 3.62 3.44 3.59 4.07 4.11 3.99 3.77 3.55
3.74 4.26 4.05 3.87 3.62 3.53 3.60 3.60 3.53 3.19 3.12 2.98 3.28 3.49 3.67 4.05 4.37 4.49 4.48 4.52 4.05 3.90 4.09 4.21 4.11 4.30 4.27 4.13 3.68 3.42 3.34 3.53 3.57 3.41 3.49 3.79 3.68 3.39 3.60 3.93 4.19 4.23 4.03
4.40 5.01 4.78 4.62 4.62 4.44 4.35 4.05 3.66 3.39 3.22 3.44 3.64 3.81 3.96 4.08 4.45 4.65 4.61 4.44 4.28 4.20 4.19 4.10 4.08 4.38 4.11 3.93 3.75 3.62 3.53 3.55 3.42 3.38 3.42 3.66 3.31 3.14 3.19 3.36 3.76 4.11 4.42
4.59 5.06 5.40 5.00 5.42 5.42 5.23 4.84 4.36 4.06 4.05 4.01 3.94 4.12 3.96 3.91 4.06 4.53 4.37 4.12 4.32 4.39 4.45 4.36 4.24 4.35 4.38 4.42 4.30 4.09 3.82 3.68 3.05 2.99 3.08 3.17 3.31 2.87 3.00 3.28 3.42 3.62 4.21
4.82 5.40 5.90 6.10 6.19 5.80 5.54 5.31 5.10 4.75 4.45 4.01 3.62 3.57 3.47 3.27 3.25 3.50 3.57 3.65 3.72 3.91 3.83 3.55 3.92 4.12 4.34 4.50 4.23 4.04 3.63 3.48 3.17 3.01 3.05 2.76 2.92 2.95 3.02 3.10 3.35 3.41 3.96
4.90 5.83 6.28 6.46 6.09 5.69 5.42 5.12 4.99 4.59 4.18 3.81 3.44 3.20 3.03 3.01 2.87 3.07 2.94 3.04 3.23 3.52 3.61 3.70 3.96 3.82 3.72 3.93 3.56 3.63 3.48 3.22 3.14 3.07 2.84 2.77 2.77 2.69 2.82 3.06 3.36 3.04 3.60
4.94 5.96 6.42 6.30 5.74 5.25 4.88 4.56 4.29 3.93 3.62 3.49 3.19 2.85 2.82 2.81 2.86 3.16 2.89 3.26 3.26 3.35 3.36 3.32 3.46 3.38 3.12 3.26 3.83 3.85 3.42 3.12 3.11 2.97 2.80 2.89 2.70 2.64 2.84 3.13 3.41 3.45 3.14
4.27 5.11 5.52 5.24 4.68 4.07 3.88 3.79 3.76 3.67 3.24 3.01 2.95 2.94 2.64 2.66 2.75 2.85 3.04 2.89 2.96 3.19 3.08 3.03 3.35 3.33 2.98 3.06 3.65 3.97 3.80 3.79 3.48 2.76 2.73 2.83 2.78 2.81 2.83 2.88 3.23 3.52 3.35
3.78 3.86 4.01 3.95 3.54 3.25 3.18 3.17 3.21 3.39 3.14 2.84 2.75 2.72 2.51 2.42 2.42 2.59 2.69 2.83 2.98 2.86 2.97 3.04 3.12 3.27 3.19 3.02 3.13 3.75 3.76 3.62 3.48 3.13 2.74 2.66 2.83 3.05 2.95 2.95 2.93 3.05 3.14
2.86 2.75 2.84 2.95 2.89 2.89 2.82 2.85 2.73 2.58 2.57 2.45 2.45 2.42 2.41 2.30 2.24 2.19 2.36 2.63 2.79 2.73 2.97 2.70 2.86 3.16 3.27 3.01 3.03 3.12 3.14 3.27 3.46 3.29 2.89 2.55 2.56 2.66 2.76 2.69 2.80 2.95 3.07
1.96 2.00 2.25 2.62 2.80 2.74 2.67 2.79 2.77 2.44 2.31 2.24 2.26 2.41 2.40 2.29 2.19 2.08 2.19 2.43 2.59 2.66 2.77 2.78 3.09 3.03 2.95 2.93 2.95 3.05 3.18 3.15 2.99 3.05 3.07 2.77 2.57 2.37 2.43 2.58 2.74 2.97 3.00
1.42 1.53 1.78 2.22 2.50 2.49 2.48 2.50 2.41 2.35 2.32 2.28 2.25 2.29 2.24 2.19 2.27 2.37 2.35 2.42 2.41 2.47 2.57 2.67 2.90 2.90 2.86 2.92 2.81 2.73 3.00 3.17 3.16 3.21 3.05 2.78 2.61 2.35 2.28 2.35 2.60 2.88 2.99